Time,TemperatureF,DewpointF,PressureIn,WindDirection,WindDirectionDegrees,WindSpeedMPH,WindSpeedGustMPH,Humidity,HourlyPrecipIn,Conditions,Clouds,dailyrainin,SolarRadiationWatts/m^2,SoftwareType,DateUTC
2013-01-23 00:03:00,10.0,5.6,29.49,NNW,337,0.0,0.0,82,0.00,,---,0.00,0.00,VWS V14.01,2013-01-23 05:03:00,
2013-01-23 00:10:00,10.0,5.6,29.48,NW,315,0.0,1.0,82,0.00,,---,0.00,0.00,VWS V14.01,2013-01-23 05:10:00,
2013-01-23 00:15:00,10.0,5.6,29.48,NW,315,0.0,0.0,82,0.00,,---,0.00,0.00,VWS V14.01,2013-01-23 05:15:00,
2013-01-23 00:20:00,10.0,5.6,29.49,WNW,292,0.0,1.0,82,0.00,,---,0.00,0.00,VWS V14.01,2013-01-23 05:20:00,
2013-01-23 00:25:00,10.0,5.6,29.49,WSW,247,0.0,0.0,82,0.00,,---,0.00,0.00,VWS V14.01,2013-01-23 05:25:00,
2013-01-23 00:30:00,10.0,5.6,29.49,NW,315,0.0,0.0,82,0.00,,---,0.00,0.00,VWS V14.01,2013-01-23 05:30:00,
2013-01-23 00:35:00,10.0,5.6,29.49,WNW,292,0.0,0.0,82,0.00,,---,0.00,0.00,VWS V14.01,2013-01-23 05:35:00,
2013-01-23 00:40:00,10.0,5.6,29.49,WNW,292,0.0,0.0,82,0.00,,---,0.00,0.00,VWS V14.01,2013-01-23 05:40:00,
2013-01-23 00:45:00,10.0,5.6,29.49,SSW,202,0.0,0.0,82,0.00,,---,0.00,0.00,VWS V14.01,2013-01-23 05:45:00,
2013-01-23 00:50:00,10.0,5.9,29.48,WNW,292,0.0,0.0,83,0.00,,---,0.00,0.00,VWS V14.01,2013-01-23 05:50:00,
2013-01-23 00:55:00,10.0,6.1,29.48,WSW,247,0.0,0.0,84,0.00,,---,0.00,0.00,VWS V14.01,2013-01-23 05:55:00,
2013-01-23 01:00:00,10.0,5.6,29.48,NNW,337,0.0,0.0,82,0.00,,---,0.00,0.00,VWS V14.01,2013-01-23 06:00:00,
2013-01-23 01:05:00,10.0,5.6,29.48,WNW,292,0.0,1.0,82,0.00,,---,0.00,0.00,VWS V14.01,2013-01-23 06:05:00,
2013-01-23 01:10:00,10.0,6.1,29.48,SW,225,0.0,0.0,84,0.00,,---,0.00,0.00,VWS V14.01,2013-01-23 06:10:00,
2013-01-23 01:15:00,10.0,6.1,29.48,NW,315,0.0,0.0,84,0.00,,---,0.00,0.00,VWS V14.01,2013-01-23 06:15:00,
2013-01-23 01:20:00,10.0,6.1,29.49,NW,315,0.0,0.0,84,0.00,,---,0.00,0.00,VWS V14.01,2013-01-23 06:20:00,
2013-01-23 01:25:00,10.0,6.1,29.49,NW,315,0.0,0.0,84,0.00,,---,0.00,0.00,VWS V14.01,2013-01-23 06:25:00,
2013-01-23 01:30:00,10.0,6.1,29.49,NNW,337,0.0,0.0,84,0.00,,---,0.00,0.00,VWS V14.01,2013-01-23 06:30:00,
2013-01-23 01:35:00,10.0,6.1,29.49,WSW,247,0.0,0.0,84,0.00,,---,0.00,0.00,VWS V14.01,2013-01-23 06:35:00,
2013-01-23 01:40:00,11.0,7.1,29.48,NNW,337,2.0,4.0,84,0.00,,---,0.00,0.00,VWS V14.01,2013-01-23 06:40:00,
2013-01-23 01:46:00,11.0,7.1,29.48,NW,315,2.0,2.0,84,0.00,,---,0.00,0.00,VWS V14.01,2013-01-23 06:46:00,
2013-01-23 01:52:00,11.0,6.6,29.49,WNW,292,0.0,0.0,82,0.00,,---,0.00,0.00,VWS V14.01,2013-01-23 06:52:00,
2013-01-23 01:57:00,11.0,6.9,29.49,WNW,292,0.0,0.0,83,0.00,,---,0.00,0.00,VWS V14.01,2013-01-23 06:57:00,
2013-01-23 02:02:00,11.0,6.9,29.49,NNW,337,0.0,0.0,83,0.00,,---,0.00,0.00,VWS V14.01,2013-01-23 07:02:00,
2013-01-23 02:07:00,11.0,7.1,29.49,WNW,292,0.0,0.0,84,0.00,,---,0.00,0.00,VWS V14.01,2013-01-23 07:07:00,
2013-01-23 02:12:00,11.0,6.9,29.49,NW,315,0.0,0.0,83,0.00,,---,0.00,0.00,VWS V14.01,2013-01-23 07:12:00,
2013-01-23 02:17:00,11.0,7.1,29.49,NW,315,0.0,0.0,84,0.00,,---,0.00,0.00,VWS V14.01,2013-01-23 07:17:00,
2013-01-23 02:22:00,11.0,7.1,29.48,WNW,292,0.0,0.0,84,0.00,,---,0.00,0.00,VWS V14.01,2013-01-23 07:22:00,
2013-01-23 02:29:00,11.0,7.1,29.47,NNW,337,0.0,0.0,84,0.00,,---,0.00,0.00,VWS V14.01,2013-01-23 07:29:00,
2013-01-23 02:34:00,10.0,6.4,29.47,NNW,337,0.0,0.0,85,0.00,,---,0.00,0.00,VWS V14.01,2013-01-23 07:34:00,
2013-01-23 02:39:00,10.0,6.4,29.48,NNW,337,0.0,0.0,85,0.00,,---,0.00,0.00,VWS V14.01,2013-01-23 07:39:00,
2013-01-23 02:44:00,10.0,6.7,29.48,NW,315,0.0,0.0,86,0.00,,---,0.00,0.00,VWS V14.01,2013-01-23 07:44:00,
2013-01-23 02:49:00,10.0,6.7,29.47,NW,315,0.0,0.0,86,0.00,,---,0.00,0.00,VWS V14.01,2013-01-23 07:49:00,
2013-01-23 02:54:00,9.0,5.9,29.47,NW,315,0.0,0.0,87,0.00,,---,0.00,0.00,VWS V14.01,2013-01-23 07:54:00,
2013-01-23 02:59:00,9.0,6.2,29.47,NW,315,0.0,0.0,88,0.00,,---,0.00,0.00,VWS V14.01,2013-01-23 07:59:00,
2013-01-23 03:04:00,8.0,5.4,29.47,NW,315,0.0,0.0,89,0.00,,---,0.00,0.00,VWS V14.01,2013-01-23 08:04:00,
2013-01-23 03:09:00,8.0,5.9,29.47,NW,315,0.0,0.0,91,0.00,,---,0.00,0.00,VWS V14.01,2013-01-23 08:09:00,
2013-01-23 03:14:00,7.0,5.2,29.47,NW,315,0.0,0.0,92,0.00,,---,0.00,0.00,VWS V14.01,2013-01-23 08:14:00,
2013-01-23 03:19:00,7.0,5.6,29.48,NW,315,0.0,0.0,94,0.00,,---,0.00,0.00,VWS V14.01,2013-01-23 08:19:00,
2013-01-23 03:24:00,7.0,5.9,29.48,NW,315,0.0,0.0,95,0.00,,---,0.00,0.00,VWS V14.01,2013-01-23 08:24:00,
2013-01-23 03:29:00,7.0,6.1,29.47,NW,315,0.0,0.0,96,0.00,,---,0.00,0.00,VWS V14.01,2013-01-23 08:29:00,
2013-01-23 03:34:00,7.0,6.1,29.47,NW,315,0.0,0.0,96,0.00,,---,0.00,0.00,VWS V14.01,2013-01-23 08:34:00,
2013-01-23 03:39:00,7.0,6.1,29.46,NW,315,0.0,0.0,96,0.00,,---,0.00,0.00,VWS V14.01,2013-01-23 08:39:00,
2013-01-23 03:44:00,6.0,5.3,29.46,NW,315,0.0,0.0,97,0.00,,---,0.00,0.00,VWS V14.01,2013-01-23 08:44:00,
2013-01-23 03:49:00,6.0,6.0,29.47,NW,315,0.0,0.0,100,0.00,,---,0.00,0.00,VWS V14.01,2013-01-23 08:49:00,
2013-01-23 03:54:00,6.0,6.0,29.47,NW,315,0.0,0.0,100,0.00,,---,0.00,0.00,VWS V14.01,2013-01-23 08:54:00,
2013-01-23 03:59:00,6.0,6.0,29.46,NW,315,0.0,0.0,100,0.00,,---,0.00,0.00,VWS V14.01,2013-01-23 08:59:00,
2013-01-23 04:04:00,5.0,5.0,29.46,NW,315,0.0,0.0,100,0.00,,---,0.00,0.00,VWS V14.01,2013-01-23 09:04:00,
2013-01-23 04:09:00,5.0,5.0,29.46,NW,315,0.0,0.0,100,0.00,,---,0.00,0.00,VWS V14.01,2013-01-23 09:09:00,
2013-01-23 04:14:00,5.0,5.0,29.46,NW,315,0.0,0.0,100,0.00,,---,0.00,0.00,VWS V14.01,2013-01-23 09:14:00,
2013-01-23 04:19:00,5.0,5.0,29.46,NW,315,0.0,0.0,100,0.00,,---,0.00,0.00,VWS V14.01,2013-01-23 09:19:00,
2013-01-23 04:25:00,5.0,5.0,29.46,NW,315,0.0,0.0,100,0.00,,---,0.00,0.00,VWS V14.01,2013-01-23 09:25:00,
2013-01-23 04:30:00,5.0,5.0,29.46,NW,315,0.0,0.0,100,0.00,,---,0.00,0.00,VWS V14.01,2013-01-23 09:30:00,
2013-01-23 04:35:00,6.0,6.0,29.46,NW,315,0.0,0.0,100,0.00,,---,0.00,0.00,VWS V14.01,2013-01-23 09:35:00,
2013-01-23 04:40:00,6.0,6.0,29.46,NW,315,0.0,0.0,100,0.00,,---,0.00,0.00,VWS V14.01,2013-01-23 09:40:00,
2013-01-23 04:46:00,6.0,6.0,29.46,NW,315,0.0,0.0,100,0.00,,---,0.00,0.00,VWS V14.01,2013-01-23 09:46:00,
2013-01-23 04:51:00,6.0,6.0,29.46,NW,315,0.0,0.0,100,0.00,,---,0.00,0.00,VWS V14.01,2013-01-23 09:51:00,
2013-01-23 04:56:00,6.0,6.0,29.46,NW,315,0.0,0.0,100,0.00,,---,0.00,0.00,VWS V14.01,2013-01-23 09:56:00,
2013-01-23 05:01:00,6.0,6.0,29.45,NW,315,0.0,0.0,100,0.00,,---,0.00,0.00,VWS V14.01,2013-01-23 10:01:00,
2013-01-23 05:06:00,6.0,6.0,29.45,NW,315,0.0,0.0,100,0.00,,---,0.00,0.00,VWS V14.01,2013-01-23 10:06:00,
2013-01-23 05:11:00,6.0,6.0,29.45,NW,315,0.0,0.0,100,0.00,,---,0.00,0.00,VWS V14.01,2013-01-23 10:11:00,
2013-01-23 05:16:00,7.0,7.0,29.45,NW,315,0.0,0.0,100,0.00,,---,0.00,0.00,VWS V14.01,2013-01-23 10:16:00,
2013-01-23 05:21:00,7.0,7.0,29.46,NW,315,0.0,0.0,100,0.00,,---,0.00,0.00,VWS V14.01,2013-01-23 10:21:00,
2013-01-23 05:26:00,7.0,7.0,29.46,NW,315,0.0,0.0,100,0.00,,---,0.00,0.00,VWS V14.01,2013-01-23 10:26:00,
2013-01-23 05:31:00,8.0,8.0,29.45,NW,315,0.0,0.0,100,0.00,,---,0.00,0.00,VWS V14.01,2013-01-23 10:31:00,
2013-01-23 05:36:00,8.0,8.0,29.45,NW,315,0.0,0.0,100,0.00,,---,0.00,0.00,VWS V14.01,2013-01-23 10:36:00,
2013-01-23 05:41:00,8.0,8.0,29.45,NW,315,0.0,0.0,100,0.00,,---,0.00,0.00,VWS V14.01,2013-01-23 10:41:00,
2013-01-23 05:47:00,8.0,8.0,29.45,NW,315,0.0,0.0,100,0.00,,---,0.00,0.00,VWS V14.01,2013-01-23 10:47:00,
2013-01-23 05:52:00,9.0,9.0,29.45,NW,315,0.0,0.0,100,0.00,,---,0.00,0.00,VWS V14.01,2013-01-23 10:52:00,
2013-01-23 05:57:00,9.0,9.0,29.45,NW,315,0.0,0.0,100,0.00,,---,0.00,0.00,VWS V14.01,2013-01-23 10:57:00,
2013-01-23 06:02:00,9.0,9.0,29.45,NW,315,0.0,0.0,100,0.00,,---,0.00,0.00,VWS V14.01,2013-01-23 11:02:00,
2013-01-23 06:07:00,9.0,9.0,29.45,NW,315,0.0,0.0,100,0.00,,---,0.00,0.00,VWS V14.01,2013-01-23 11:07:00,
2013-01-23 06:12:00,9.0,9.0,29.45,NW,315,0.0,0.0,100,0.00,,---,0.00,0.00,VWS V14.01,2013-01-23 11:12:00,
2013-01-23 06:17:00,10.0,10.0,29.45,SW,225,0.0,0.0,100,0.00,,---,0.00,0.00,VWS V14.01,2013-01-23 11:17:00,
2013-01-23 06:22:00,10.0,9.8,29.46,SW,225,0.0,0.0,99,0.00,,---,0.00,0.00,VWS V14.01,2013-01-23 11:22:00,
2013-01-23 06:27:00,10.0,9.3,29.46,WSW,247,0.0,0.0,97,0.00,,---,0.00,0.00,VWS V14.01,2013-01-23 11:27:00,
2013-01-23 06:32:00,10.0,9.1,29.46,WSW,247,0.0,0.0,96,0.00,,---,0.00,0.00,VWS V14.01,2013-01-23 11:32:00,
2013-01-23 06:37:00,10.0,8.6,29.46,WSW,247,0.0,0.0,94,0.00,,---,0.00,0.00,VWS V14.01,2013-01-23 11:37:00,
2013-01-23 06:42:00,10.0,8.4,29.47,WSW,247,0.0,0.0,93,0.00,,---,0.00,0.00,VWS V14.01,2013-01-23 11:42:00,
2013-01-23 06:48:00,10.0,8.4,29.47,WSW,247,0.0,0.0,93,0.00,,---,0.00,0.00,VWS V14.01,2013-01-23 11:48:00,
2013-01-23 06:53:00,11.0,8.9,29.46,West,270,0.0,0.0,91,0.00,,---,0.00,0.00,VWS V14.01,2013-01-23 11:53:00,
2013-01-23 06:58:00,11.0,8.9,29.46,WSW,247,0.0,0.0,91,0.00,,---,0.00,0.00,VWS V14.01,2013-01-23 11:58:00,
2013-01-23 07:03:00,11.0,8.6,29.46,SW,225,0.0,1.0,90,0.00,,---,0.00,0.00,VWS V14.01,2013-01-23 12:03:00,
2013-01-23 07:08:00,11.0,8.6,29.46,WSW,247,0.0,0.0,90,0.00,,---,0.00,0.00,VWS V14.01,2013-01-23 12:08:00,
2013-01-23 07:13:00,11.0,8.9,29.45,WSW,247,0.0,0.0,91,0.00,,---,0.00,0.00,VWS V14.01,2013-01-23 12:13:00,
2013-01-23 07:18:00,11.0,8.6,29.45,WSW,247,0.0,0.0,90,0.00,,---,0.00,0.00,VWS V14.01,2013-01-23 12:18:00,
2013-01-23 07:23:00,11.0,8.4,29.45,WSW,247,0.0,1.0,89,0.00,,---,0.00,0.00,VWS V14.01,2013-01-23 12:23:00,
2013-01-23 07:28:00,11.0,8.6,29.45,WSW,247,0.0,0.0,90,0.00,,---,0.00,0.00,VWS V14.01,2013-01-23 12:28:00,
2013-01-23 07:33:00,11.0,8.6,29.45,South,180,1.0,2.0,90,0.00,,---,0.00,0.00,VWS V14.01,2013-01-23 12:33:00,
2013-01-23 07:38:00,11.0,8.6,29.45,SSW,202,0.0,0.0,90,0.00,,---,0.00,0.00,VWS V14.01,2013-01-23 12:38:00,
2013-01-23 07:43:00,11.0,8.1,29.46,WSW,247,0.0,0.0,88,0.00,,---,0.00,0.00,VWS V14.01,2013-01-23 12:43:00,
2013-01-23 07:48:00,11.0,8.1,29.46,SW,225,0.0,0.0,88,0.00,,---,0.00,0.00,VWS V14.01,2013-01-23 12:48:00,
2013-01-23 07:53:00,11.0,8.1,29.46,SW,225,0.0,2.0,88,0.00,,---,0.00,0.00,VWS V14.01,2013-01-23 12:53:00,
2013-01-23 07:58:00,11.0,7.9,29.46,SSW,202,0.0,0.0,87,0.00,,---,0.00,0.00,VWS V14.01,2013-01-23 12:58:00,
2013-01-23 08:03:00,11.0,7.9,29.45,SSW,202,0.0,0.0,87,0.00,,---,0.00,0.00,VWS V14.01,2013-01-23 13:03:00,
2013-01-23 08:08:00,11.0,7.6,29.45,NW,315,0.0,0.0,86,0.00,,---,0.00,0.00,VWS V14.01,2013-01-23 13:08:00,
2013-01-23 08:09:00,11.0,7.6,29.45,NW,315,0.0,0.0,86,0.00,,---,0.00,0.00,VWS V14.01,2013-01-23 13:09:00,
2013-01-23 08:13:00,11.0,7.6,29.45,NW,315,0.0,0.0,86,0.00,,---,0.00,0.00,VWS V14.01,2013-01-23 13:13:00,
2013-01-23 08:18:00,11.0,7.6,29.45,NW,315,0.0,0.0,86,0.00,,---,0.00,0.00,VWS V14.01,2013-01-23 13:18:00,
2013-01-23 08:38:00,12.0,8.1,29.46,SW,225,0.0,0.0,84,0.00,,---,0.00,0.00,VWS V14.01,2013-01-23 13:38:00,
2013-01-23 08:43:00,12.0,7.8,29.45,WNW,292,0.0,0.0,83,0.00,,---,0.00,0.00,VWS V14.01,2013-01-23 13:43:00,
2013-01-23 08:48:00,12.0,7.8,29.45,South,180,0.0,0.0,83,0.00,,---,0.00,0.00,VWS V14.01,2013-01-23 13:48:00,
2013-01-23 08:53:00,12.0,7.8,29.45,SSW,202,0.0,0.0,83,0.00,,---,0.00,0.00,VWS V14.01,2013-01-23 13:53:00,
2013-01-23 08:58:00,12.0,7.6,29.45,SSW,202,1.0,1.0,82,0.00,,---,0.00,0.00,VWS V14.01,2013-01-23 13:58:00,
2013-01-23 09:03:00,12.0,7.8,29.45,SSW,202,1.0,1.0,83,0.00,,---,0.00,0.00,VWS V14.01,2013-01-23 14:03:00,
2013-01-23 09:08:00,12.0,7.8,29.45,SSW,202,0.0,1.0,83,0.00,,---,0.00,0.00,VWS V14.01,2013-01-23 14:08:00,
2013-01-23 09:13:00,12.0,7.6,29.44,SSE,157,2.0,3.0,82,0.00,,---,0.00,0.00,VWS V14.01,2013-01-23 14:13:00,
2013-01-23 09:18:00,12.0,7.3,29.44,SSW,202,1.0,3.0,81,0.00,,---,0.00,0.00,VWS V14.01,2013-01-23 14:18:00,
2013-01-23 09:23:00,12.0,7.0,29.44,SSW,202,2.0,5.0,80,0.00,,---,0.00,0.00,VWS V14.01,2013-01-23 14:23:00,
2013-01-23 09:28:00,12.0,6.8,29.44,WSW,247,1.0,1.0,79,0.00,,---,0.00,0.00,VWS V14.01,2013-01-23 14:28:00,
2013-01-23 09:33:00,12.0,6.8,29.44,SW,225,1.0,1.0,79,0.00,,---,0.00,0.00,VWS V14.01,2013-01-23 14:33:00,
2013-01-23 09:38:00,13.0,7.7,29.44,SSW,202,0.0,1.0,79,0.00,,---,0.00,0.00,VWS V14.01,2013-01-23 14:38:00,
2013-01-23 09:43:00,13.0,8.0,29.44,WSW,247,0.0,0.0,80,0.00,,---,0.00,0.00,VWS V14.01,2013-01-23 14:43:00,
2013-01-23 09:48:00,13.0,8.0,29.44,WSW,247,0.0,0.0,80,0.00,,---,0.00,0.00,VWS V14.01,2013-01-23 14:48:00,
2013-01-23 09:53:00,13.0,7.4,29.44,SSW,202,1.0,1.0,78,0.00,,---,0.00,0.00,VWS V14.01,2013-01-23 14:53:00,
2013-01-23 09:58:00,13.0,7.4,29.44,SSW,202,1.0,1.0,78,0.00,,---,0.00,0.00,VWS V14.01,2013-01-23 14:58:00,
2013-01-23 10:03:00,14.0,7.6,29.44,SSE,157,0.0,4.0,75,0.00,,---,0.00,0.00,VWS V14.01,2013-01-23 15:03:00,
2013-01-23 10:09:00,14.0,7.6,29.44,SW,225,0.0,1.0,75,0.00,,---,0.00,0.00,VWS V14.01,2013-01-23 15:09:00,
2013-01-23 10:14:00,14.0,7.6,29.44,South,180,2.0,3.0,75,0.00,,---,0.00,0.00,VWS V14.01,2013-01-23 15:14:00,
2013-01-23 10:19:00,14.0,7.0,29.44,South,180,3.0,3.0,73,0.00,,---,0.00,0.00,VWS V14.01,2013-01-23 15:19:00,
2013-01-23 10:24:00,14.0,7.6,29.44,SSW,202,1.0,1.0,75,0.00,,---,0.00,0.00,VWS V14.01,2013-01-23 15:24:00,
2013-01-23 10:29:00,14.0,7.6,29.44,SSW,202,1.0,1.0,75,0.00,,---,0.00,0.00,VWS V14.01,2013-01-23 15:29:00,
2013-01-23 10:35:00,14.0,7.2,29.44,SSW,202,1.0,1.0,74,0.00,,---,0.00,0.00,VWS V14.01,2013-01-23 15:35:00,
2013-01-23 10:40:00,14.0,7.2,29.44,SSW,202,1.0,1.0,74,0.00,,---,0.00,0.00,VWS V14.01,2013-01-23 15:40:00,
2013-01-23 10:45:00,14.0,7.0,29.44,SW,225,0.0,0.0,73,0.00,,---,0.00,0.00,VWS V14.01,2013-01-23 15:45:00,
2013-01-23 10:50:00,14.0,7.0,29.44,SW,225,0.0,0.0,73,0.00,,---,0.00,0.00,VWS V14.01,2013-01-23 15:50:00,
2013-01-23 10:56:00,15.0,7.6,29.43,SSW,202,0.0,0.0,72,0.00,,---,0.00,0.00,VWS V14.01,2013-01-23 15:56:00,
2013-01-23 11:01:00,15.0,7.6,29.43,SSW,202,0.0,0.0,72,0.00,,---,0.00,0.00,VWS V14.01,2013-01-23 16:01:00,
2013-01-23 11:06:00,15.0,7.6,29.43,SSW,202,0.0,0.0,72,0.00,,---,0.00,0.00,VWS V14.01,2013-01-23 16:06:00,
2013-01-23 11:11:00,16.0,8.0,29.42,SSW,202,3.0,3.0,70,0.00,,---,0.00,0.00,VWS V14.01,2013-01-23 16:11:00,
2013-01-23 11:16:00,16.0,7.6,29.42,SSW,202,0.0,0.0,69,0.00,,---,0.00,0.00,VWS V14.01,2013-01-23 16:16:00,
2013-01-23 11:21:00,16.0,6.7,29.42,South,180,3.0,6.0,66,0.00,,---,0.00,0.00,VWS V14.01,2013-01-23 16:21:00,
2013-01-23 11:27:00,16.0,6.7,29.42,SE,135,0.0,0.0,66,0.00,,---,0.00,0.00,VWS V14.01,2013-01-23 16:27:00,
2013-01-23 11:32:00,16.0,6.7,29.42,SE,135,0.0,0.0,66,0.00,,---,0.00,0.00,VWS V14.01,2013-01-23 16:32:00,
2013-01-23 11:37:00,16.0,7.3,29.41,WSW,247,0.0,0.0,68,0.00,,---,0.00,0.00,VWS V14.01,2013-01-23 16:37:00,
2013-01-23 11:42:00,16.0,6.7,29.42,SSW,202,3.0,3.0,66,0.00,,---,0.00,0.00,VWS V14.01,2013-01-23 16:42:00,
2013-01-23 11:47:00,16.0,6.7,29.42,SSW,202,3.0,3.0,66,0.00,,---,0.00,0.00,VWS V14.01,2013-01-23 16:47:00,
2013-01-23 11:52:00,16.0,7.3,29.40,South,180,0.0,1.0,68,0.00,,---,0.00,0.00,VWS V14.01,2013-01-23 16:52:00,
2013-01-23 11:57:00,17.0,7.3,29.40,SSW,202,0.0,0.0,65,0.00,,---,0.00,0.00,VWS V14.01,2013-01-23 16:57:00,
2013-01-23 12:02:00,17.0,7.3,29.39,South,180,0.0,3.0,65,0.00,,---,0.00,0.00,VWS V14.01,2013-01-23 17:02:00,
2013-01-23 12:07:00,17.0,7.6,29.39,SSW,202,1.0,1.0,66,0.00,,---,0.00,0.00,VWS V14.01,2013-01-23 17:07:00,
2013-01-23 12:12:00,17.0,6.6,29.36,SSW,202,1.0,3.0,63,0.00,,---,0.00,0.00,VWS V14.01,2013-01-23 17:12:00,
2013-01-23 12:17:00,18.0,7.2,29.36,SSE,157,3.0,7.0,62,0.00,,---,0.00,0.00,VWS V14.01,2013-01-23 17:17:00,
2013-01-23 12:22:00,17.0,5.9,29.35,SSW,202,4.0,5.0,61,0.00,,---,0.00,0.00,VWS V14.01,2013-01-23 17:22:00,
2013-01-23 12:27:00,17.0,6.6,29.35,SSW,202,2.0,4.0,63,0.00,,---,0.00,0.00,VWS V14.01,2013-01-23 17:27:00,
2013-01-23 12:32:00,17.0,6.6,29.34,WSW,247,3.0,3.0,63,0.00,,---,0.00,0.00,VWS V14.01,2013-01-23 17:32:00,
2013-01-23 12:37:00,17.0,6.6,29.34,WSW,247,1.0,4.0,63,0.00,,---,0.00,0.00,VWS V14.01,2013-01-23 17:37:00,
2013-01-23 12:43:00,17.0,6.6,29.33,SSE,157,1.0,6.0,63,0.00,,---,0.00,0.00,VWS V14.01,2013-01-23 17:43:00,
2013-01-23 12:48:00,18.0,7.9,29.33,SW,225,0.0,5.0,64,0.00,,---,0.00,0.00,VWS V14.01,2013-01-23 17:48:00,
2013-01-23 12:53:00,17.0,6.9,29.33,SSW,202,1.0,2.0,64,0.00,,---,0.00,0.00,VWS V14.01,2013-01-23 17:53:00,
2013-01-23 12:58:00,17.0,6.6,29.33,SSW,202,1.0,5.0,63,0.00,,---,0.00,0.00,VWS V14.01,2013-01-23 17:58:00,
2013-01-23 13:03:00,18.0,9.2,29.32,West,270,1.0,5.0,68,0.00,,---,0.00,0.00,VWS V14.01,2013-01-23 18:03:00,
2013-01-23 13:08:00,18.0,9.2,29.32,SSE,157,0.0,3.0,68,0.00,,---,0.00,0.00,VWS V14.01,2013-01-23 18:08:00,
2013-01-23 13:13:00,18.0,9.2,29.31,SW,225,2.0,5.0,68,0.00,,---,0.00,0.00,VWS V14.01,2013-01-23 18:13:00,
2013-01-23 13:18:00,18.0,9.2,29.31,SW,225,2.0,4.0,68,0.00,,---,0.00,0.00,VWS V14.01,2013-01-23 18:18:00,
2013-01-23 13:23:00,18.0,9.2,29.31,SSW,202,0.0,4.0,68,0.00,,---,0.00,0.00,VWS V14.01,2013-01-23 18:23:00,
2013-01-23 13:28:00,18.0,9.2,29.31,SW,225,4.0,4.0,68,0.00,,---,0.00,0.00,VWS V14.01,2013-01-23 18:28:00,
2013-01-23 13:33:00,18.0,9.6,29.29,SSW,202,0.0,1.0,69,0.00,,---,0.00,0.00,VWS V14.01,2013-01-23 18:33:00,
2013-01-23 13:38:00,18.0,9.2,29.29,SSE,157,1.0,1.0,68,0.00,,---,0.00,0.00,VWS V14.01,2013-01-23 18:38:00,
2013-01-23 13:43:00,19.0,9.5,29.29,South,180,3.0,5.0,66,0.00,,---,0.00,0.00,VWS V14.01,2013-01-23 18:43:00,
2013-01-23 13:46:00,19.0,9.9,29.29,NNE,22,0.0,0.0,67,0.00,,---,0.00,0.00,VWS V14.01,2013-01-23 18:46:00,
2013-01-23 13:48:00,19.0,9.9,29.29,NNE,22,0.0,0.0,67,0.00,,---,0.00,0.00,VWS V14.01,2013-01-23 18:48:00,
2013-01-23 13:53:00,19.0,9.9,29.29,NNE,22,0.0,0.0,67,0.00,,---,0.00,0.00,VWS V14.01,2013-01-23 18:53:00,
2013-01-23 13:58:00,18.0,8.9,29.29,WNW,292,0.0,0.0,67,0.00,,---,0.00,0.00,VWS V14.01,2013-01-23 18:58:00,
2013-01-23 14:03:00,18.0,8.2,29.29,SSW,202,1.0,2.0,65,0.00,,---,0.00,0.00,VWS V14.01,2013-01-23 19:03:00,
2013-01-23 14:08:00,18.0,8.2,29.27,SSW,202,0.0,2.0,65,0.00,,---,0.00,0.00,VWS V14.01,2013-01-23 19:08:00,
2013-01-23 14:13:00,18.0,7.5,29.27,SW,225,2.0,2.0,63,0.00,,---,0.00,0.00,VWS V14.01,2013-01-23 19:13:00,
2013-01-23 14:18:00,18.0,8.2,29.28,SSW,202,1.0,1.0,65,0.00,,---,0.00,0.00,VWS V14.01,2013-01-23 19:18:00,
2013-01-23 14:23:00,18.0,7.2,29.28,SW,225,0.0,3.0,62,0.00,,---,0.00,0.00,VWS V14.01,2013-01-23 19:23:00,
2013-01-23 14:28:00,18.0,7.2,29.29,SW,225,0.0,5.0,62,0.00,,---,0.00,0.00,VWS V14.01,2013-01-23 19:28:00,
2013-01-23 14:33:00,18.0,7.5,29.29,South,180,2.0,2.0,63,0.00,,---,0.00,0.00,VWS V14.01,2013-01-23 19:33:00,
2013-01-23 14:38:00,19.0,7.8,29.27,SSW,202,3.0,5.0,61,0.00,,---,0.00,0.00,VWS V14.01,2013-01-23 19:38:00,
2013-01-23 14:43:00,19.0,8.1,29.27,SSW,202,0.0,1.0,62,0.00,,---,0.00,0.00,VWS V14.01,2013-01-23 19:43:00,
2013-01-23 14:49:00,19.0,7.8,29.27,SSW,202,2.0,6.0,61,0.00,,---,0.00,0.00,VWS V14.01,2013-01-23 19:49:00,
2013-01-23 14:54:00,19.0,8.1,29.27,SSW,202,3.0,5.0,62,0.00,,---,0.00,0.00,VWS V14.01,2013-01-23 19:54:00,
2013-01-23 14:59:00,19.0,8.5,29.28,SW,225,1.0,4.0,63,0.00,,---,0.00,0.00,VWS V14.01,2013-01-23 19:59:00,
2013-01-23 15:04:00,19.0,8.5,29.28,SSW,202,0.0,3.0,63,0.00,,---,0.00,0.00,VWS V14.01,2013-01-23 20:04:00,
2013-01-23 15:09:00,19.0,8.8,29.27,SSW,202,4.0,5.0,64,0.00,,---,0.00,0.00,VWS V14.01,2013-01-23 20:09:00,
2013-01-23 15:14:00,19.0,8.8,29.27,SSW,202,1.0,4.0,64,0.00,,---,0.00,0.00,VWS V14.01,2013-01-23 20:14:00,
2013-01-23 15:19:00,19.0,9.2,29.27,SSW,202,2.0,3.0,65,0.00,,---,0.00,0.00,VWS V14.01,2013-01-23 20:19:00,
2013-01-23 15:24:00,19.0,9.2,29.27,SSW,202,2.0,5.0,65,0.00,,---,0.00,0.00,VWS V14.01,2013-01-23 20:24:00,
2013-01-23 15:29:00,19.0,9.5,29.27,SSW,202,2.0,4.0,66,0.00,,---,0.00,0.00,VWS V14.01,2013-01-23 20:29:00,
2013-01-23 15:34:00,19.0,9.9,29.27,SSW,202,0.0,2.0,67,0.00,,---,0.00,0.00,VWS V14.01,2013-01-23 20:34:00,
2013-01-23 15:39:00,19.0,10.5,29.27,SSW,202,5.0,5.0,69,0.00,,---,0.00,0.00,VWS V14.01,2013-01-23 20:39:00,
2013-01-23 15:44:00,19.0,10.8,29.28,South,180,0.0,4.0,70,0.00,,---,0.00,0.00,VWS V14.01,2013-01-23 20:44:00,
2013-01-23 15:49:00,19.0,10.8,29.28,South,180,0.0,0.0,70,0.00,,---,0.00,0.00,VWS V14.01,2013-01-23 20:49:00,
2013-01-23 15:54:00,19.0,11.2,29.27,SSW,202,4.0,4.0,71,0.00,,---,0.00,0.00,VWS V14.01,2013-01-23 20:54:00,
2013-01-23 15:59:00,19.0,11.8,29.27,SW,225,0.0,0.0,73,0.00,,---,0.00,0.00,VWS V14.01,2013-01-23 20:59:00,
2013-01-23 16:00:00,19.0,11.5,29.29,SW,225,0.0,0.0,72,0.00,,---,0.00,0.00,VWS V14.01,2013-01-23 21:00:00,
2013-01-23 16:04:00,19.0,11.5,29.29,SW,225,0.0,0.0,72,0.00,,---,0.00,0.00,VWS V14.01,2013-01-23 21:04:00,
2013-01-23 16:09:00,19.0,11.5,29.29,SW,225,0.0,0.0,72,0.00,,---,0.00,0.00,VWS V14.01,2013-01-23 21:09:00,
2013-01-23 16:16:00,20.0,12.4,29.28,WNW,292,0.0,0.0,72,0.00,,---,0.00,0.00,VWS V14.01,2013-01-23 21:16:00,
2013-01-23 16:21:00,20.0,12.4,29.28,ENE,67,0.0,0.0,72,0.00,,---,0.00,0.00,VWS V14.01,2013-01-23 21:21:00,
2013-01-23 16:26:00,20.0,12.4,29.28,SSW,202,1.0,2.0,72,0.00,,---,0.00,0.00,VWS V14.01,2013-01-23 21:26:00,
2013-01-23 16:31:00,20.0,12.4,29.28,South,180,0.0,0.0,72,0.00,,---,0.00,0.00,VWS V14.01,2013-01-23 21:31:00,
2013-01-23 16:34:00,20.0,12.1,29.28,SSE,157,0.0,0.0,71,0.00,,---,0.00,0.00,VWS V14.01,2013-01-23 21:34:00,
2013-01-23 16:36:00,20.0,12.1,29.28,SSE,157,0.0,0.0,71,0.00,,---,0.00,0.00,VWS V14.01,2013-01-23 21:36:00,
2013-01-23 16:42:00,20.0,12.1,29.28,SSE,157,0.0,0.0,71,0.00,,---,0.00,0.00,VWS V14.01,2013-01-23 21:42:00,
2013-01-23 16:51:00,20.0,12.4,29.28,NNW,337,0.0,0.0,72,0.00,,---,0.00,0.00,VWS V14.01,2013-01-23 21:51:00,
2013-01-23 16:56:00,20.0,12.1,29.28,WSW,247,0.0,0.0,71,0.00,,---,0.00,0.00,VWS V14.01,2013-01-23 21:56:00,
2013-01-23 17:01:00,20.0,12.4,29.27,SSW,202,0.0,0.0,72,0.00,,---,0.00,0.00,VWS V14.01,2013-01-23 22:01:00,
2013-01-23 17:06:00,20.0,12.4,29.27,SSW,202,0.0,0.0,72,0.00,,---,0.00,0.00,VWS V14.01,2013-01-23 22:06:00,
2013-01-23 17:10:00,20.0,12.8,29.27,ESE,112,0.0,0.0,73,0.00,,---,0.00,0.00,VWS V14.01,2013-01-23 22:10:00,
2013-01-23 17:11:00,20.0,12.8,29.27,ESE,112,0.0,0.0,73,0.00,,---,0.00,0.00,VWS V14.01,2013-01-23 22:11:00,
2013-01-23 17:16:00,20.0,12.8,29.27,ESE,112,0.0,0.0,73,0.00,,---,0.00,0.00,VWS V14.01,2013-01-23 22:16:00,
2013-01-23 17:26:00,20.0,13.4,29.28,WNW,292,1.0,1.0,75,0.00,,---,0.00,0.00,VWS V14.01,2013-01-23 22:26:00,
2013-01-23 17:31:00,20.0,13.1,29.27,NE,45,0.0,0.0,74,0.00,,---,0.00,0.00,VWS V14.01,2013-01-23 22:31:00,
2013-01-23 17:36:00,20.0,13.1,29.27,WSW,247,0.0,0.0,74,0.00,,---,0.00,0.00,VWS V14.01,2013-01-23 22:36:00,
2013-01-23 17:41:00,20.0,13.4,29.27,WSW,247,0.0,0.0,75,0.00,,---,0.00,0.00,VWS V14.01,2013-01-23 22:41:00,
2013-01-23 17:46:00,20.0,13.4,29.27,WSW,247,0.0,0.0,75,0.00,,---,0.00,0.00,VWS V14.01,2013-01-23 22:46:00,
2013-01-23 17:51:00,20.0,13.4,29.27,WNW,292,0.0,0.0,75,0.00,,---,0.00,0.00,VWS V14.01,2013-01-23 22:51:00,
2013-01-23 17:56:00,20.0,13.4,29.27,SSW,202,0.0,1.0,75,0.00,,---,0.00,0.00,VWS V14.01,2013-01-23 22:56:00,
2013-01-23 18:01:00,20.0,13.4,29.27,SSW,202,0.0,0.0,75,0.00,,---,0.00,0.00,VWS V14.01,2013-01-23 23:01:00,
2013-01-23 18:06:00,20.0,13.4,29.27,SW,225,0.0,0.0,75,0.00,,---,0.00,0.00,VWS V14.01,2013-01-23 23:06:00,
2013-01-23 18:11:00,20.0,13.4,29.28,WSW,247,0.0,0.0,75,0.00,,---,0.00,0.00,VWS V14.01,2013-01-23 23:11:00,
2013-01-23 18:16:00,20.0,13.7,29.28,WSW,247,0.0,0.0,76,0.00,,---,0.00,0.00,VWS V14.01,2013-01-23 23:16:00,
2013-01-23 18:21:00,20.0,13.4,29.28,WSW,247,0.0,0.0,75,0.00,,---,0.00,0.00,VWS V14.01,2013-01-23 23:21:00,
2013-01-23 18:26:00,20.0,13.7,29.28,WSW,247,0.0,0.0,76,0.00,,---,0.00,0.00,VWS V14.01,2013-01-23 23:26:00,
2013-01-23 18:31:00,20.0,13.7,29.28,WSW,247,0.0,0.0,76,0.00,,---,0.00,0.00,VWS V14.01,2013-01-23 23:31:00,
2013-01-23 18:36:00,19.0,13.3,29.28,WSW,247,0.0,0.0,78,0.00,,---,0.00,0.00,VWS V14.01,2013-01-23 23:36:00,
2013-01-23 18:41:00,19.0,13.3,29.27,WSW,247,0.0,0.0,78,0.00,,---,0.00,0.00,VWS V14.01,2013-01-23 23:41:00,
2013-01-23 18:46:00,19.0,13.0,29.27,WSW,247,0.0,0.0,77,0.00,,---,0.00,0.00,VWS V14.01,2013-01-23 23:46:00,
2013-01-23 18:51:00,19.0,13.3,29.27,WSW,247,0.0,0.0,78,0.00,,---,0.00,0.00,VWS V14.01,2013-01-23 23:51:00,
2013-01-23 18:56:00,19.0,13.3,29.27,WSW,247,0.0,0.0,78,0.00,,---,0.00,0.00,VWS V14.01,2013-01-23 23:56:00,
2013-01-23 19:01:00,19.0,13.3,29.28,WSW,247,0.0,0.0,78,0.00,,---,0.00,0.00,VWS V14.01,2013-01-24 00:01:00,
2013-01-23 19:06:00,19.0,13.3,29.28,WSW,247,0.0,0.0,78,0.00,,---,0.00,0.00,VWS V14.01,2013-01-24 00:06:00,
2013-01-23 19:11:00,19.0,13.3,29.27,WSW,247,0.0,0.0,78,0.00,,---,0.00,0.00,VWS V14.01,2013-01-24 00:11:00,
2013-01-23 19:16:00,19.0,13.6,29.27,WSW,247,0.0,0.0,79,0.00,,---,0.00,0.00,VWS V14.01,2013-01-24 00:16:00,
2013-01-23 19:21:00,19.0,13.9,29.27,WSW,247,0.0,0.0,80,0.00,,---,0.00,0.00,VWS V14.01,2013-01-24 00:21:00,
2013-01-23 19:26:00,19.0,13.9,29.27,WSW,247,0.0,0.0,80,0.00,,---,0.00,0.00,VWS V14.01,2013-01-24 00:26:00,
2013-01-23 19:31:00,19.0,13.9,29.27,WSW,247,0.0,0.0,80,0.00,,---,0.00,0.00,VWS V14.01,2013-01-24 00:31:00,
2013-01-23 19:36:00,19.0,14.1,29.27,WSW,247,0.0,0.0,81,0.00,,---,0.00,0.00,VWS V14.01,2013-01-24 00:36:00,
2013-01-23 19:41:00,19.0,14.1,29.27,WSW,247,0.0,0.0,81,0.00,,---,0.00,0.00,VWS V14.01,2013-01-24 00:41:00,
2013-01-23 19:46:00,19.0,14.1,29.27,WSW,247,0.0,0.0,81,0.00,,---,0.00,0.00,VWS V14.01,2013-01-24 00:46:00,
2013-01-23 19:51:00,19.0,14.4,29.27,WSW,247,0.0,0.0,82,0.00,,---,0.00,0.00,VWS V14.01,2013-01-24 00:51:00,
2013-01-23 19:56:00,19.0,14.4,29.27,WSW,247,0.0,0.0,82,0.00,,---,0.00,0.00,VWS V14.01,2013-01-24 00:56:00,
2013-01-23 20:01:00,19.0,14.4,29.27,WSW,247,0.0,0.0,82,0.00,,---,0.00,0.00,VWS V14.01,2013-01-24 01:01:00,
2013-01-23 20:06:00,19.0,14.4,29.27,WSW,247,0.0,0.0,82,0.00,,---,0.00,0.00,VWS V14.01,2013-01-24 01:06:00,
2013-01-23 20:11:00,19.0,14.4,29.27,WSW,247,0.0,0.0,82,0.00,,---,0.00,0.00,VWS V14.01,2013-01-24 01:11:00,
2013-01-23 20:16:00,19.0,15.0,29.27,WSW,247,0.0,0.0,84,0.00,,---,0.00,0.00,VWS V14.01,2013-01-24 01:16:00,
2013-01-23 20:21:00,19.0,14.7,29.27,WSW,247,0.0,0.0,83,0.00,,---,0.00,0.00,VWS V14.01,2013-01-24 01:21:00,
2013-01-23 20:26:00,19.0,14.7,29.27,WSW,247,0.0,0.0,83,0.00,,---,0.00,0.00,VWS V14.01,2013-01-24 01:26:00,
2013-01-23 20:31:00,19.0,14.7,29.26,WSW,247,0.0,0.0,83,0.00,,---,0.00,0.00,VWS V14.01,2013-01-24 01:31:00,
2013-01-23 20:36:00,19.0,15.0,29.26,WSW,247,0.0,0.0,84,0.00,,---,0.00,0.00,VWS V14.01,2013-01-24 01:36:00,
2013-01-23 20:41:00,19.0,15.0,29.27,WSW,247,0.0,0.0,84,0.00,,---,0.00,0.00,VWS V14.01,2013-01-24 01:41:00,
2013-01-23 20:46:00,19.0,15.0,29.27,WSW,247,0.0,0.0,84,0.00,,---,0.00,0.00,VWS V14.01,2013-01-24 01:46:00,
2013-01-23 20:51:00,19.0,15.0,29.27,WSW,247,0.0,0.0,84,0.00,,---,0.00,0.00,VWS V14.01,2013-01-24 01:51:00,
2013-01-23 20:56:00,19.0,15.0,29.27,WSW,247,0.0,0.0,84,0.00,,---,0.00,0.00,VWS V14.01,2013-01-24 01:56:00,
2013-01-23 21:01:00,19.0,15.0,29.27,WSW,247,0.0,0.0,84,0.00,,---,0.00,0.00,VWS V14.01,2013-01-24 02:01:00,
2013-01-23 21:06:00,19.0,15.0,29.27,WSW,247,0.0,0.0,84,0.00,,---,0.00,0.00,VWS V14.01,2013-01-24 02:06:00,
2013-01-23 21:11:00,19.0,15.0,29.27,WSW,247,0.0,0.0,84,0.00,,---,0.00,0.00,VWS V14.01,2013-01-24 02:11:00,
2013-01-23 21:16:00,19.0,15.0,29.27,WSW,247,0.0,0.0,84,0.00,,---,0.00,0.00,VWS V14.01,2013-01-24 02:16:00,
2013-01-23 21:21:00,19.0,15.0,29.26,WSW,247,0.0,0.0,84,0.00,,---,0.00,0.00,VWS V14.01,2013-01-24 02:21:00,
2013-01-23 21:24:00,19.0,15.0,29.26,WSW,247,0.0,0.0,84,0.00,,---,0.00,0.00,VWS V14.01,2013-01-24 02:24:00,
2013-01-23 21:26:00,19.0,15.0,29.26,WSW,247,0.0,0.0,84,0.00,,---,0.00,0.00,VWS V14.01,2013-01-24 02:26:00,
2013-01-23 21:31:00,19.0,15.0,29.26,WSW,247,0.0,0.0,84,0.00,,---,0.00,0.00,VWS V14.01,2013-01-24 02:31:00,
2013-01-23 21:38:00,19.0,15.0,29.27,WSW,247,0.0,0.0,84,0.00,,---,0.00,0.00,VWS V14.01,2013-01-24 02:38:00,
2013-01-23 21:43:00,19.0,15.0,29.27,WSW,247,0.0,0.0,84,0.00,,---,0.00,0.00,VWS V14.01,2013-01-24 02:43:00,
2013-01-23 21:46:00,19.0,15.0,29.27,WSW,247,0.0,0.0,84,0.00,,---,0.00,0.00,VWS V14.01,2013-01-24 02:46:00,
2013-01-23 21:48:00,19.0,15.0,29.27,WSW,247,0.0,0.0,84,0.00,,---,0.00,0.00,VWS V14.01,2013-01-24 02:48:00,
2013-01-23 21:53:00,19.0,15.0,29.27,WSW,247,0.0,0.0,84,0.00,,---,0.00,0.00,VWS V14.01,2013-01-24 02:53:00,
2013-01-23 22:16:00,19.0,16.3,29.28,NNW,337,0.0,0.0,89,0.00,,---,0.00,0.00,VWS V14.01,2013-01-24 03:16:00,
2013-01-23 22:21:00,19.0,15.8,29.29,NW,315,0.0,0.0,87,0.00,,---,0.00,0.00,VWS V14.01,2013-01-24 03:21:00,
2013-01-23 22:26:00,19.0,15.8,29.29,WSW,247,0.0,0.0,87,0.00,,---,0.00,0.00,VWS V14.01,2013-01-24 03:26:00,
2013-01-23 22:31:00,19.0,16.0,29.29,NW,315,0.0,0.0,88,0.00,,---,0.00,0.00,VWS V14.01,2013-01-24 03:31:00,
2013-01-23 22:36:00,19.0,16.3,29.29,NW,315,0.0,0.0,89,0.00,,---,0.00,0.00,VWS V14.01,2013-01-24 03:36:00,
2013-01-23 22:41:00,19.0,16.3,29.30,NNW,337,1.0,1.0,89,0.00,,---,0.00,0.00,VWS V14.01,2013-01-24 03:41:00,
2013-01-23 22:47:00,20.0,16.8,29.30,WNW,292,0.0,1.0,87,0.00,,---,0.00,0.00,VWS V14.01,2013-01-24 03:47:00,
2013-01-23 22:52:00,20.0,16.5,29.30,NW,315,0.0,1.0,86,0.00,,---,0.00,0.00,VWS V14.01,2013-01-24 03:52:00,
2013-01-23 22:57:00,20.0,16.5,29.30,NNW,337,3.0,3.0,86,0.00,,---,0.00,0.00,VWS V14.01,2013-01-24 03:57:00,
2013-01-23 23:02:00,20.0,16.2,29.31,NNW,337,1.0,2.0,85,0.00,,---,0.00,0.00,VWS V14.01,2013-01-24 04:02:00,
2013-01-23 23:07:00,20.0,16.2,29.31,WNW,292,4.0,9.0,85,0.00,,---,0.00,0.00,VWS V14.01,2013-01-24 04:07:00,
2013-01-23 23:12:00,20.0,16.2,29.31,NNW,337,9.0,9.0,85,0.00,,---,0.00,0.00,VWS V14.01,2013-01-24 04:12:00,
2013-01-23 23:17:00,20.0,16.2,29.31,WSW,247,0.0,6.0,85,0.00,,---,0.00,0.00,VWS V14.01,2013-01-24 04:17:00,
2013-01-23 23:22:00,20.0,15.7,29.31,NW,315,5.0,5.0,83,0.00,,---,0.00,0.00,VWS V14.01,2013-01-24 04:22:00,
2013-01-23 23:27:00,20.0,15.1,29.31,North,360,2.0,3.0,81,0.00,,---,0.00,0.00,VWS V14.01,2013-01-24 04:27:00,
2013-01-23 23:32:00,20.0,15.1,29.31,SSW,202,2.0,2.0,81,0.00,,---,0.00,0.00,VWS V14.01,2013-01-24 04:32:00,
2013-01-23 23:37:00,20.0,14.6,29.31,NNW,337,0.0,4.0,79,0.00,,---,0.00,0.00,VWS V14.01,2013-01-24 04:37:00,
2013-01-23 23:42:00,19.0,13.9,29.32,NNW,337,1.0,7.0,80,0.00,,---,0.00,0.00,VWS V14.01,2013-01-24 04:42:00,
2013-01-23 23:47:00,19.0,13.9,29.32,NW,315,0.0,2.0,80,0.00,,---,0.00,0.00,VWS V14.01,2013-01-24 04:47:00,
2013-01-23 23:52:00,19.0,13.9,29.33,NW,315,3.0,9.0,80,0.00,,---,0.00,0.00,VWS V14.01,2013-01-24 04:52:00,
2013-01-23 23:57:00,18.0,12.6,29.33,NNW,337,3.0,7.0,79,0.00,,---,0.00,0.00,VWS V14.01,2013-01-24 04:57:00,